{"data":{"norad_id":66812,"intl_designator":"2025-278X","name":"STARLINK-36054","alt_names":[],"object_type":"PAYLOAD","status":"ACTIVE","operator":null,"country":"US","launch_date":"2025-12-01","launch_site_code":"AFETR","launch_vehicle":null,"mission":null,"orbit_class":"UNKNOWN","rcs_meters":null,"size_class":null,"mass_kg":null,"dimensions":null,"purposes":["comms"],"wikipedia_slug":null,"has_3d_model":false,"image_url":null,"decayed_at":null,"tle_current":{"epoch":"2026-09-20T21:35:18.206592Z","epoch_age_seconds":52015,"freshness":"FRESH","line1":"1 66812U 25278X   26263.89951628  .00007819  00000+0  29330-3 0  9998","line2":"2 66812  43.0023  91.9459 0001358 271.3081  88.7615 15.27586171 45066","mean_motion":15.27586171,"eccentricity":0.0001358,"inclination_deg":43.0023,"raan_deg":91.9459,"arg_perigee_deg":271.3081,"mean_anomaly_deg":88.7615,"bstar":0.0002933,"rev_number":4506,"period_min":94.266367903641,"perigee_km":482.09887134534,"apogee_km":483.96236447037,"semimajor_km":6861.1676179079,"source":"CELESTRAK","updated_at":"2026-09-21T09:00:36.017732Z"}}}